EW1549 Weather Reports


Display with metric or nautical units.
time (UTC)temp
F
wind
direction
speed
MPH
gust
MPH
rain 1hr
in
rain 24hr
in
rain mn
in
humidity
%
barometer
mb
20260503203003 64 149 0.0 2.0 0.00 0.00 0.00 76 1015.6
20260503201503 64 221 0.0 4.0 0.00 0.00 0.00 76 1015.1
20260503200003 65 237 3.0 5.0 0.00 0.00 0.00 75 1015.4
20260503194502 65 265 2.0 4.0 0.00 0.00 0.00 73 1015.2
20260503193002 65 271 3.0 6.0 0.00 0.00 0.00 71 1015.3
20260503191507 66 282 2.0 6.0 0.00 0.00 0.00 71 1015.1
20260503190059 66 335 1.0 3.0 0.00 0.00 0.00 62 1014.9
20260503184613 66 338 2.0 7.0 0.00 0.00 0.00 66 1014.8
20260503183054 67 334 2.0 4.0 0.00 0.00 0.00 64 1014.8
20260503181611 67 329 3.0 8.0 0.00 0.00 0.00 60 1014.9
20260503180112 68 358 3.0 6.0 0.00 0.00 0.00 61 1014.8
20260503174556 68 359 2.0 6.0 0.00 0.00 0.00 65 1014.8
20260503173058 68 4 1.0 8.0 0.00 0.00 0.00 65 1014.9
20260503171545 68 41 3.0 8.0 0.00 0.00 0.00 69 1015.1
20260503081557 62 176 2.0 6.0 0.00 0.00 0.00 71 1016.6
20260503080106 61 214 2.0 6.0 0.00 0.00 0.00 71 1016.8
20260503071600 59 185 3.0 5.0 0.00 0.00 0.00 74 1016.7
20260503054547 60 175 2.0 4.0 0.00 0.00 0.00 71 1016.0
20260503053046 60 184 2.0 4.0 0.00 0.00 0.00 70 1015.8
20260503051544 60 187 2.0 4.0 0.00 0.00 0.00 69 1015.7
20260503050044 60 175 2.0 4.0 0.00 0.00 0.00 71 1015.7
20260503044545 60 174 3.0 4.0 0.00 0.00 0.00 73 1015.7
20260503043040 60 177 2.0 7.0 0.00 0.00 0.00 73 1015.8
20260503041539 60 170 2.0 7.0 0.00 0.00 0.00 74 1016.1
20260503040036 60 173 3.0 5.0 0.00 0.00 0.00 76 1016.4
20260503034535 60 177 2.0 4.0 0.00 0.00 0.00 76 1016.6
20260503033038 60 176 3.0 5.0 0.00 0.00 0.00 78 1016.5
20260503031534 60 177 2.0 4.0 0.00 0.00 0.00 79 1016.7
20260503030048 60 191 2.0 3.0 0.00 0.00 0.00 79 1016.5
20260503024533 60 185 2.0 4.0 0.00 0.00 0.00 79 1016.7
20260503023027 60 182 3.0 4.0 0.00 0.00 0.00 78 1016.9
20260503021527 60 174 2.0 6.0 0.00 0.00 0.00 77 1017.1
20260503020024 60 160 3.0 6.0 0.00 0.00 0.00 77 1017.0
20260503014521 61 171 3.0 7.0 0.00 0.00 0.00 81 1017.1
20260503013019 61 182 1.0 4.0 0.00 0.00 0.00 81 1017.4
20260503011518 61 171 2.0 4.0 0.00 0.00 0.00 80 1017.7
20260503010019 61 203 3.0 6.0 0.00 0.00 0.00 79 1017.6
20260503004517 61 191 2.0 4.0 0.00 0.00 0.00 80 1017.7
20260503003013 61 201 2.0 4.0 0.00 0.00 0.00 77 1018.0
20260503001512 61 197 2.0 5.0 0.00 0.00 0.00 79 1018.0
20260503000019 62 191 2.0 6.0 0.00 0.00 0.00 78 1018.1
20260502234508 61 208 2.0 7.0 0.00 0.00 0.00 78 1018.3
20260502233008 61 175 2.0 5.0 0.00 0.00 0.00 80 1018.4
20260502231505 61 188 2.0 6.0 0.00 0.00 0.00 80 1018.4
20260502230003 62 215 2.0 6.0 0.00 0.00 0.00 78 1018.5
20260502224600 62 184 2.0 4.0 0.00 0.00 0.00 76 1018.4
20260502223100 62 163 3.0 7.0 0.00 0.00 0.00 77 1018.1
20260502221558 62 191 2.0 5.0 0.00 0.00 0.00 78 1018.5
20260502220058 62 186 3.0 6.0 0.00 0.00 0.00 78 1018.2
20260502214559 62 185 2.0 5.0 0.00 0.00 0.00 79 1018.0
20260502213055 62 187 2.0 4.0 0.00 0.00 0.00 78 1017.9
20260502211556 62 192 2.0 6.0 0.00 0.00 0.00 79 1017.8
20260502210054 62 189 3.0 6.0 0.00 0.00 0.00 79 1017.6
20260502204533 62 184 3.0 4.0 0.00 0.00 0.00 79 1017.6